RYR9DK LDZA-EBCI

Flight info

Callsign RYR9DK
Flight time 1h 45m
Altitude 28000
Route PODET DCT BERTA DCT EVAXI DCT BIRGI DCT KPT L608 MISGI Z104 GESLO N852 LNO
Aircraft A320/M-SDE3FGHIRWY/LB1

Departure

Time 2026-04-28 16:23
Airport Zagreb Franjo Tuđman International Airport (LDZA)

Arrival

Time 2026-04-28 18:08
Airport Brussels South Charleroi Airport (EBCI)
Time Latitude Longitude Altitude Speed Heading
2026-04-28 15:53 45.74238 16.07923 361 ft 0 kts 136°
2026-04-28 15:53 45.74235 16.07926 359 ft 0 kts 136°
2026-04-28 16:13 45.74245 16.07913 364 ft 4 kts 136°
2026-04-28 16:13 45.74265 16.07886 360 ft 4 kts 136°
2026-04-28 16:13 45.74300 16.07845 359 ft 4 kts 180°
2026-04-28 16:14 45.74322 16.07864 359 ft 0 kts 226°
2026-04-28 16:17 45.74316 16.07854 364 ft 2 kts 226°
2026-04-28 16:17 45.74297 16.07825 363 ft 6 kts 227°
2026-04-28 16:17 45.74261 16.07771 361 ft 9 kts 227°
2026-04-28 16:17 45.74206 16.07687 359 ft 14 kts 227°
2026-04-28 16:18 45.74135 16.07579 361 ft 15 kts 226°
2026-04-28 16:18 45.74069 16.07480 365 ft 13 kts 228°
2026-04-28 16:18 45.74084 16.07383 360 ft 11 kts 317°
2026-04-28 16:18 45.74151 16.07293 360 ft 15 kts 317°
2026-04-28 16:19 45.74219 16.07192 361 ft 12 kts 290°
2026-04-28 16:19 45.74183 16.07106 364 ft 10 kts 226°
2026-04-28 16:19 45.74139 16.07038 363 ft 10 kts 226°
2026-04-28 16:19 45.74082 16.06952 362 ft 14 kts 227°
2026-04-28 16:20 45.74008 16.06839 360 ft 17 kts 226°
2026-04-28 16:20 45.73923 16.06710 365 ft 15 kts 226°
2026-04-28 16:20 45.73841 16.06585 365 ft 19 kts 227°
2026-04-28 16:20 45.73762 16.06464 360 ft 13 kts 227°
2026-04-28 16:21 45.73756 16.06370 363 ft 10 kts 320°
2026-04-28 16:21 45.73801 16.06315 363 ft 7 kts 319°
2026-04-28 16:21 45.73831 16.06276 364 ft 6 kts 317°
2026-04-28 16:21 45.73865 16.06234 361 ft 7 kts 333°
2026-04-28 16:22 45.73900 16.06281 367 ft 10 kts 46°
2026-04-28 16:22 45.74069 16.06536 361 ft 75 kts 47°
2026-04-28 16:22 45.74609 16.07359 363 ft 149 kts 47°
2026-04-28 16:22 45.75360 16.08504 929 ft 159 kts 47°
2026-04-28 16:23 45.76134 16.09681 1714 ft 164 kts 47°
2026-04-28 16:23 45.76918 16.10873 2522 ft 163 kts 47°
2026-04-28 16:23 45.77689 16.12047 3151 ft 161 kts 48°
2026-04-28 16:23 45.78446 16.13201 3676 ft 163 kts 49°
2026-04-28 16:24 45.79279 16.14478 3941 ft 184 kts 48°
2026-04-28 16:24 45.80208 16.15896 4202 ft 206 kts 48°
2026-04-28 16:24 45.81247 16.17483 4456 ft 230 kts 48°
2026-04-28 16:24 45.82559 16.18970 4797 ft 254 kts 22°
2026-04-28 16:25 45.84333 16.19167 5334 ft 271 kts 346°
2026-04-28 16:25 45.86010 16.17899 6091 ft 277 kts 322°
2026-04-28 16:25 45.87413 16.15983 6934 ft 280 kts 313°
2026-04-28 16:25 45.88712 16.13880 7749 ft 283 kts 311°
2026-04-28 16:26 45.90014 16.11748 8544 ft 286 kts 311°
2026-04-28 16:26 45.91371 16.09629 9287 ft 291 kts 313°
2026-04-28 16:26 45.92792 16.07535 10025 ft 295 kts 314°
2026-04-28 16:26 45.94285 16.05427 10446 ft 311 kts 314°
2026-04-28 16:27 45.95901 16.03204 10739 ft 329 kts 315°
2026-04-28 16:27 45.97584 16.00933 11455 ft 332 kts 315°
2026-04-28 16:27 46.00943 15.96398 13093 ft 330 kts 312°
2026-04-28 16:28 46.02368 15.93815 13797 ft 331 kts 303°
2026-04-28 16:28 46.03677 15.91082 14472 ft 332 kts 303°
2026-04-28 16:28 46.04991 15.88327 15103 ft 335 kts 303°
2026-04-28 16:28 46.06310 15.85552 15731 ft 337 kts 303°
2026-04-28 16:29 46.08979 15.79926 16914 ft 343 kts 303°
2026-04-28 16:29 46.11686 15.74213 18080 ft 348 kts 303°
2026-04-28 16:30 46.13055 15.71332 18641 ft 350 kts 303°
2026-04-28 16:30 46.14433 15.68429 19201 ft 352 kts 303°
2026-04-28 16:30 46.15813 15.65509 19779 ft 353 kts 303°
2026-04-28 16:30 46.17131 15.62518 20331 ft 354 kts 296°
2026-04-28 16:31 46.18115 15.59262 20885 ft 355 kts 291°
2026-04-28 16:31 46.19043 15.55955 21435 ft 356 kts 291°
2026-04-28 16:31 46.19977 15.52639 21983 ft 357 kts 292°
2026-04-28 16:31 46.20917 15.49316 22485 ft 358 kts 292°
2026-04-28 16:32 46.21862 15.45981 22995 ft 360 kts 292°
2026-04-28 16:32 46.23758 15.39269 23951 ft 362 kts 291°
2026-04-28 16:32 46.24706 15.35886 24406 ft 365 kts 291°
2026-04-28 16:33 46.25658 15.32483 24840 ft 366 kts 291°
2026-04-28 16:33 46.26302 15.30177 25141 ft 367 kts 291°
2026-04-28 16:33 46.27570 15.25640 25670 ft 369 kts 291°
2026-04-28 16:33 46.28532 15.22197 26071 ft 370 kts 291°
2026-04-28 16:34 46.29494 15.18736 26462 ft 372 kts 291°
2026-04-28 16:34 46.30460 15.15267 26839 ft 372 kts 291°
2026-04-28 16:34 46.31430 15.11789 27192 ft 374 kts 291°
2026-04-28 16:34 46.32404 15.08299 27532 ft 375 kts 291°
2026-04-28 16:35 46.33378 15.04796 27850 ft 377 kts 291°
2026-04-28 16:35 46.34354 15.01275 28201 ft 377 kts 291°
2026-04-28 16:35 46.35330 14.97742 28516 ft 378 kts 291°
2026-04-28 16:35 46.36305 14.94202 28837 ft 379 kts 291°
2026-04-28 16:36 46.37280 14.90654 29156 ft 380 kts 291°
2026-04-28 16:36 46.38258 14.87095 29448 ft 381 kts 291°
2026-04-28 16:36 46.39239 14.83521 29753 ft 383 kts 291°
2026-04-28 16:36 46.40224 14.79922 30025 ft 385 kts 291°
2026-04-28 16:37 46.41211 14.76315 30306 ft 385 kts 290°
2026-04-28 16:37 46.42200 14.72701 30550 ft 387 kts 290°
2026-04-28 16:37 46.43193 14.69070 30813 ft 388 kts 290°
2026-04-28 16:38 46.45185 14.61783 31397 ft 388 kts 291°
2026-04-28 16:38 46.46219 14.58174 31724 ft 387 kts 291°
2026-04-28 16:38 46.47296 14.54593 32053 ft 386 kts 292°
2026-04-28 16:38 46.48388 14.51042 32384 ft 385 kts 292°
2026-04-28 16:39 46.49482 14.47496 32705 ft 384 kts 292°
2026-04-28 16:39 46.50566 14.43957 33024 ft 383 kts 292°
2026-04-28 16:39 46.51638 14.40423 33319 ft 382 kts 292°
2026-04-28 16:39 46.52698 14.36894 33632 ft 381 kts 292°
2026-04-28 16:40 46.53749 14.33369 33942 ft 379 kts 292°
2026-04-28 16:40 46.54795 14.29853 34237 ft 378 kts 292°
2026-04-28 16:40 46.55837 14.26345 34490 ft 378 kts 292°
2026-04-28 16:40 46.56879 14.22840 34717 ft 378 kts 292°
2026-04-28 16:41 46.57922 14.19330 34941 ft 378 kts 292°
2026-04-28 16:41 46.58965 14.15819 35149 ft 378 kts 292°
2026-04-28 16:41 46.60006 14.12309 35350 ft 378 kts 292°
2026-04-28 16:41 46.61048 14.08792 35540 ft 379 kts 292°
2026-04-28 16:42 46.62089 14.05274 35729 ft 379 kts 292°
2026-04-28 16:42 46.63132 14.01757 35888 ft 379 kts 292°
2026-04-28 16:42 46.64174 13.98237 36044 ft 379 kts 292°
2026-04-28 16:43 46.66240 13.91202 36080 ft 377 kts 292°
2026-04-28 16:43 46.68291 13.84190 36083 ft 376 kts 292°
2026-04-28 16:44 46.70347 13.77171 36081 ft 377 kts 292°
2026-04-28 16:44 46.72392 13.70151 36080 ft 376 kts 292°
2026-04-28 16:45 46.74436 13.63145 36084 ft 376 kts 292°
2026-04-28 16:45 46.76465 13.56133 36085 ft 375 kts 291°
2026-04-28 16:46 46.78670 13.49230 36087 ft 376 kts 296°
2026-04-28 16:46 46.81145 13.42509 36087 ft 376 kts 296°
2026-04-28 16:47 46.83620 13.35795 36078 ft 375 kts 296°
2026-04-28 16:47 46.86089 13.29075 36075 ft 375 kts 296°
2026-04-28 16:48 46.88546 13.22338 36073 ft 376 kts 296°
2026-04-28 16:48 46.90993 13.15595 36067 ft 376 kts 296°
2026-04-28 16:49 46.93446 13.08841 36070 ft 376 kts 296°
2026-04-28 16:49 46.95906 13.02050 36128 ft 379 kts 296°
2026-04-28 16:50 46.98376 12.95235 36145 ft 378 kts 296°
2026-04-28 16:50 47.00833 12.88425 36144 ft 378 kts 296°
2026-04-28 16:51 47.03280 12.81627 36136 ft 377 kts 296°
2026-04-28 16:51 47.05716 12.74836 36134 ft 376 kts 296°
2026-04-28 16:52 47.08135 12.68043 36130 ft 377 kts 295°
2026-04-28 16:52 47.10575 12.61222 36132 ft 377 kts 296°
2026-04-28 16:53 47.12595 12.55565 36132 ft 376 kts 296°
2026-04-28 16:53 47.15402 12.47666 36126 ft 375 kts 295°
2026-04-28 16:54 47.17809 12.40857 36123 ft 374 kts 296°
2026-04-28 16:54 47.19815 12.35158 36125 ft 376 kts 295°
2026-04-28 16:55 47.22216 12.28346 36117 ft 375 kts 295°
2026-04-28 16:55 47.24618 12.21525 36114 ft 375 kts 295°
2026-04-28 16:56 47.27010 12.14707 36118 ft 375 kts 295°
2026-04-28 16:56 47.29394 12.07882 36117 ft 375 kts 295°
2026-04-28 16:57 47.31767 12.01053 36110 ft 374 kts 295°
2026-04-28 16:57 47.34137 11.94224 36100 ft 374 kts 295°
2026-04-28 16:58 47.36135 11.87222 36090 ft 374 kts 290°
2026-04-28 16:58 47.38015 11.80029 36077 ft 373 kts 290°
2026-04-28 16:59 47.39873 11.72869 36070 ft 373 kts 289°
2026-04-28 16:59 47.41725 11.65700 36064 ft 374 kts 290°
2026-04-28 17:00 47.43569 11.58566 36060 ft 375 kts 289°
2026-04-28 17:00 47.45419 11.51376 36062 ft 374 kts 290°
2026-04-28 17:01 47.47271 11.44183 36064 ft 375 kts 289°
2026-04-28 17:01 47.49117 11.36973 36050 ft 375 kts 289°
2026-04-28 17:02 47.50957 11.29753 36055 ft 375 kts 289°
2026-04-28 17:02 47.52793 11.22532 36054 ft 375 kts 289°
2026-04-28 17:03 47.55533 11.11679 36061 ft 375 kts 289°
2026-04-28 17:03 47.57355 11.04438 36059 ft 375 kts 289°
2026-04-28 17:04 47.60090 10.93573 36059 ft 375 kts 289°
2026-04-28 17:05 47.62809 10.82690 36069 ft 376 kts 289°
2026-04-28 17:06 47.65527 10.71794 36071 ft 376 kts 289°
2026-04-28 17:06 47.68228 10.60880 36072 ft 376 kts 289°
2026-04-28 17:07 47.70025 10.53591 36075 ft 376 kts 288°
2026-04-28 17:07 47.71815 10.46296 36080 ft 377 kts 288°
2026-04-28 17:08 47.73638 10.38993 36083 ft 377 kts 292°
2026-04-28 17:08 47.76630 10.32570 36079 ft 385 kts 312°
2026-04-28 17:09 47.80771 10.27453 36074 ft 388 kts 316°
2026-04-28 17:09 47.84947 10.22375 36073 ft 388 kts 315°
2026-04-28 17:10 47.89089 10.17308 36075 ft 388 kts 315°
2026-04-28 17:10 47.93257 10.12190 36076 ft 388 kts 315°
2026-04-28 17:11 47.97432 10.07065 36076 ft 388 kts 315°
2026-04-28 17:11 48.01604 10.01935 36076 ft 389 kts 315°
2026-04-28 17:12 48.05777 9.96800 36079 ft 389 kts 315°
2026-04-28 17:12 48.09958 9.91644 36083 ft 390 kts 315°
2026-04-28 17:13 48.14187 9.86405 36084 ft 399 kts 315°
2026-04-28 17:13 48.18482 9.81058 36082 ft 402 kts 315°
2026-04-28 17:14 48.22794 9.75692 36081 ft 403 kts 315°
2026-04-28 17:14 48.27111 9.70318 36081 ft 404 kts 315°
2026-04-28 17:15 48.31431 9.64936 36083 ft 404 kts 315°
2026-04-28 17:15 48.35741 9.59517 36081 ft 404 kts 315°
2026-04-28 17:16 48.40018 9.54041 36083 ft 404 kts 315°
2026-04-28 17:16 48.44294 9.48544 36081 ft 404 kts 315°
2026-04-28 17:17 48.48578 9.43047 36080 ft 405 kts 315°
2026-04-28 17:17 48.52858 9.37532 36080 ft 405 kts 315°
2026-04-28 17:18 48.57141 9.32003 36077 ft 406 kts 315°
2026-04-28 17:18 48.61513 9.26583 36073 ft 410 kts 322°
2026-04-28 17:19 48.66681 9.22719 36074 ft 417 kts 330°
2026-04-28 17:19 48.72010 9.19206 36071 ft 418 kts 330°
2026-04-28 17:20 48.76444 9.16275 36073 ft 419 kts 330°
2026-04-28 17:20 48.82689 9.12135 36075 ft 419 kts 330°
2026-04-28 17:21 48.88032 9.08576 36077 ft 420 kts 330°
2026-04-28 17:22 48.95971 9.03122 36074 ft 419 kts 330°
2026-04-28 17:22 49.01274 8.99401 36074 ft 420 kts 330°
2026-04-28 17:23 49.09247 8.93837 36067 ft 420 kts 330°
2026-04-28 17:23 49.14569 8.90132 36058 ft 420 kts 330°
2026-04-28 17:24 49.19908 8.86457 36040 ft 423 kts 334°
2026-04-28 17:24 49.25538 8.83649 36031 ft 426 kts 337°
2026-04-28 17:25 49.34023 8.79522 36015 ft 427 kts 337°
2026-04-28 17:26 49.39678 8.76749 36005 ft 426 kts 337°
2026-04-28 17:26 49.45334 8.73969 35994 ft 427 kts 337°
2026-04-28 17:27 49.51005 8.71185 35983 ft 428 kts 337°
2026-04-28 17:27 49.56686 8.68393 35980 ft 429 kts 337°
2026-04-28 17:28 49.62374 8.65582 35992 ft 429 kts 337°
2026-04-28 17:28 49.70791 8.60961 35998 ft 424 kts 327°
2026-04-28 17:29 49.75458 8.55632 36014 ft 415 kts 313°
2026-04-28 17:30 49.81795 8.46398 36081 ft 418 kts 312°
2026-04-28 17:30 49.85228 8.39289 36090 ft 411 kts 294°
2026-04-28 17:30 49.86314 8.35219 36095 ft 409 kts 286°
2026-04-28 17:31 49.88952 8.22624 36106 ft 410 kts 287°
2026-04-28 17:32 49.91599 8.09998 36113 ft 411 kts 286°
2026-04-28 17:32 49.93355 8.01553 36118 ft 412 kts 286°
2026-04-28 17:33 49.95098 7.93087 36114 ft 412 kts 285°
2026-04-28 17:33 49.96201 7.87391 36121 ft 412 kts 285°
2026-04-28 17:34 49.98302 7.76014 36127 ft 412 kts 284°
2026-04-28 17:34 49.99929 7.67480 36133 ft 412 kts 286°
2026-04-28 17:35 50.01694 7.59006 36119 ft 412 kts 287°
2026-04-28 17:35 50.03482 7.50529 36122 ft 413 kts 287°
2026-04-28 17:36 50.05233 7.42016 36121 ft 414 kts 286°
2026-04-28 17:36 50.06952 7.33458 36121 ft 415 kts 286°
2026-04-28 17:37 50.07999 7.24673 36122 ft 414 kts 273°
2026-04-28 17:37 50.08370 7.15720 36124 ft 414 kts 274°
2026-04-28 17:38 50.08755 7.06746 36123 ft 416 kts 274°
2026-04-28 17:38 50.09065 6.99264 36118 ft 417 kts 273°
2026-04-28 17:39 50.09430 6.90243 36126 ft 418 kts 273°
2026-04-28 17:40 50.09298 6.76678 36124 ft 418 kts 268°
2026-04-28 17:40 50.09111 6.67622 36122 ft 419 kts 268°
2026-04-28 17:41 50.08923 6.58555 36124 ft 419 kts 268°
2026-04-28 17:41 50.08734 6.49501 36127 ft 418 kts 268°
2026-04-28 17:42 50.09416 6.40566 35724 ft 422 kts 292°
2026-04-28 17:42 50.10890 6.36618 35179 ft 423 kts 302°
2026-04-28 17:42 50.12615 6.32901 34631 ft 423 kts 303°
2026-04-28 17:42 50.14378 6.29227 34077 ft 423 kts 303°
2026-04-28 17:43 50.16156 6.25575 33529 ft 423 kts 303°
2026-04-28 17:43 50.17944 6.21927 32974 ft 423 kts 303°
2026-04-28 17:43 50.19721 6.18287 32426 ft 420 kts 303°
2026-04-28 17:43 50.21480 6.14665 31875 ft 417 kts 303°
2026-04-28 17:44 50.23215 6.11069 31325 ft 414 kts 303°
2026-04-28 17:44 50.24932 6.07484 30773 ft 410 kts 303°
2026-04-28 17:44 50.26629 6.03926 30223 ft 406 kts 303°
2026-04-28 17:44 50.28303 6.00389 29673 ft 403 kts 303°
2026-04-28 17:45 50.29957 5.96870 29121 ft 400 kts 303°
2026-04-28 17:45 50.31595 5.93364 28570 ft 398 kts 303°
2026-04-28 17:45 50.33222 5.89869 28022 ft 396 kts 303°
2026-04-28 17:45 50.34837 5.86383 27457 ft 395 kts 303°
2026-04-28 17:46 50.36439 5.82902 26915 ft 393 kts 303°
2026-04-28 17:46 50.38031 5.79425 26363 ft 392 kts 303°
2026-04-28 17:46 50.39609 5.75958 25817 ft 390 kts 303°
2026-04-28 17:46 50.41159 5.72479 25344 ft 387 kts 300°
2026-04-28 17:47 50.42399 5.68747 24928 ft 386 kts 293°
2026-04-28 17:47 50.43532 5.64929 24373 ft 386 kts 293°
2026-04-28 17:47 50.44651 5.61115 23819 ft 384 kts 293°
2026-04-28 17:47 50.45403 5.58543 23456 ft 384 kts 293°
2026-04-28 17:48 50.46863 5.53496 22716 ft 383 kts 293°
2026-04-28 17:48 50.47960 5.49686 22166 ft 383 kts 293°
2026-04-28 17:48 50.49050 5.45878 21619 ft 382 kts 293°
2026-04-28 17:48 50.50133 5.42070 21063 ft 382 kts 293°
2026-04-28 17:49 50.51208 5.38260 20513 ft 381 kts 293°
2026-04-28 17:49 50.52279 5.34459 19962 ft 380 kts 293°
2026-04-28 17:49 50.53344 5.30659 19409 ft 380 kts 293°
2026-04-28 17:49 50.54406 5.26862 18857 ft 379 kts 293°
2026-04-28 17:50 50.55457 5.23071 18304 ft 378 kts 293°
2026-04-28 17:50 50.56502 5.19282 17753 ft 377 kts 293°
2026-04-28 17:50 50.57541 5.15500 17199 ft 376 kts 293°
2026-04-28 17:50 50.58577 5.11721 16652 ft 376 kts 292°
2026-04-28 17:51 50.59611 5.07951 16099 ft 375 kts 293°
2026-04-28 17:51 50.60642 5.04189 15542 ft 374 kts 293°
2026-04-28 17:51 50.61667 5.00431 14995 ft 373 kts 293°
2026-04-28 17:51 50.62688 4.96682 14441 ft 372 kts 292°
2026-04-28 17:52 50.63706 4.92942 13889 ft 371 kts 293°
2026-04-28 17:52 50.64722 4.89205 13335 ft 370 kts 293°
2026-04-28 17:52 50.66730 4.81803 12240 ft 358 kts 293°
2026-04-28 17:53 50.67687 4.78269 11693 ft 344 kts 293°
2026-04-28 17:53 50.68615 4.74827 11194 ft 340 kts 293°
2026-04-28 17:53 50.69522 4.71424 10930 ft 335 kts 292°
2026-04-28 17:53 50.70412 4.68043 10683 ft 333 kts 292°
2026-04-28 17:54 50.71291 4.64686 10440 ft 327 kts 293°
2026-04-28 17:54 50.72107 4.61390 10216 ft 318 kts 286°
2026-04-28 17:54 50.72275 4.58012 10143 ft 305 kts 260°
2026-04-28 17:54 50.71779 4.54768 10161 ft 304 kts 252°
2026-04-28 17:55 50.71140 4.51595 10154 ft 303 kts 251°
2026-04-28 17:55 50.70485 4.48437 10153 ft 303 kts 251°
2026-04-28 17:55 50.69827 4.45280 10131 ft 304 kts 251°
2026-04-28 17:55 50.69160 4.42085 9577 ft 307 kts 250°
2026-04-28 17:56 50.68496 4.38915 9030 ft 302 kts 251°
2026-04-28 17:56 50.67831 4.35785 8468 ft 301 kts 251°
2026-04-28 17:56 50.67167 4.32674 7929 ft 299 kts 251°
2026-04-28 17:56 50.66520 4.29547 7379 ft 302 kts 251°
2026-04-28 17:57 50.65876 4.26383 6826 ft 304 kts 251°
2026-04-28 17:57 50.65232 4.23212 6272 ft 302 kts 251°
2026-04-28 17:57 50.64594 4.20079 5727 ft 299 kts 251°
2026-04-28 17:57 50.63958 4.16964 5199 ft 296 kts 251°
2026-04-28 17:58 50.63335 4.13906 4827 ft 291 kts 252°
2026-04-28 17:58 50.62720 4.10890 4574 ft 288 kts 251°
2026-04-28 17:58 50.62103 4.07893 4330 ft 288 kts 251°
2026-04-28 17:58 50.61493 4.04905 4114 ft 286 kts 251°
2026-04-28 17:59 50.60883 4.01927 3999 ft 285 kts 251°
2026-04-28 17:59 50.60272 3.98956 4019 ft 286 kts 251°
2026-04-28 17:59 50.59629 3.95986 4020 ft 287 kts 245°
2026-04-28 17:59 50.58514 3.93439 4021 ft 283 kts 221°
2026-04-28 18:00 50.56882 3.91802 4019 ft 277 kts 196°
2026-04-28 18:00 50.55023 3.91290 4014 ft 269 kts 173°
2026-04-28 18:00 50.53233 3.91902 4020 ft 262 kts 152°
2026-04-28 18:00 50.51742 3.93455 4019 ft 255 kts 131°
2026-04-28 18:01 50.50661 3.95630 4007 ft 253 kts 122°
2026-04-28 18:01 50.49654 3.97884 4004 ft 253 kts 122°
2026-04-28 18:01 50.48640 4.00147 4022 ft 253 kts 122°
2026-04-28 18:01 50.47626 4.02402 4022 ft 253 kts 122°
2026-04-28 18:02 50.46605 4.04654 4013 ft 253 kts 122°
2026-04-28 18:02 50.45588 4.06894 4004 ft 248 kts 122°
2026-04-28 18:02 50.44612 4.09041 3844 ft 238 kts 122°
2026-04-28 18:02 50.43670 4.11119 3617 ft 230 kts 122°
2026-04-28 18:03 50.42755 4.13135 3372 ft 224 kts 122°
2026-04-28 18:03 50.41863 4.15108 3147 ft 219 kts 122°
2026-04-28 18:03 50.40993 4.17031 2972 ft 214 kts 121°
2026-04-28 18:03 50.40135 4.18934 2845 ft 212 kts 120°
2026-04-28 18:04 50.39560 4.20946 2720 ft 197 kts 98°
2026-04-28 18:04 50.39568 4.23013 2613 ft 186 kts 76°
2026-04-28 18:04 50.40036 4.24881 2525 ft 184 kts 65°
2026-04-28 18:04 50.40570 4.26689 2508 ft 183 kts 65°
2026-04-28 18:05 50.41095 4.28497 2514 ft 179 kts 65°
2026-04-28 18:05 50.41425 4.29632 2533 ft 168 kts 65°
2026-04-28 18:05 50.42044 4.31747 2373 ft 157 kts 65°
2026-04-28 18:05 50.42496 4.33291 2140 ft 154 kts 65°
2026-04-28 18:06 50.42933 4.34786 1921 ft 150 kts 63°
2026-04-28 18:06 50.43347 4.36208 1747 ft 137 kts 64°
2026-04-28 18:06 50.43732 4.37534 1570 ft 131 kts 64°
2026-04-28 18:06 50.44109 4.38821 1372 ft 130 kts 64°
2026-04-28 18:07 50.44487 4.40102 1184 ft 128 kts 64°
2026-04-28 18:07 50.44848 4.41387 993 ft 128 kts 65°
2026-04-28 18:07 50.45220 4.42665 815 ft 129 kts 63°
2026-04-28 18:07 50.45598 4.43955 679 ft 131 kts 64°
2026-04-28 18:08 50.45965 4.45211 590 ft 115 kts 65°
2026-04-28 18:08 50.46229 4.46123 591 ft 67 kts 65°
2026-04-28 18:08 50.46394 4.46690 591 ft 46 kts 66°
2026-04-28 18:08 50.46466 4.46877 594 ft 13 kts 28°
2026-04-28 18:09 50.46542 4.46871 594 ft 9 kts 336°
2026-04-28 18:09 50.46574 4.46848 594 ft 3 kts 335°
2026-04-28 18:09 50.46585 4.46841 593 ft 2 kts 335°
2026-04-28 18:09 50.46603 4.46828 593 ft 4 kts 335°
2026-04-28 18:10 50.46631 4.46808 592 ft 5 kts 335°
2026-04-28 18:10 50.46669 4.46787 590 ft 6 kts
2026-04-28 18:10 50.46690 4.46836 590 ft 5 kts 66°
2026-04-28 18:10 50.46705 4.46888 590 ft 6 kts 65°
2026-04-28 18:11 50.46723 4.46951 589 ft 7 kts 65°
2026-04-28 18:11 50.46746 4.47028 588 ft 4 kts 65°
2026-04-28 18:11 50.46772 4.47036 587 ft 6 kts 339°
2026-04-28 18:11 50.46808 4.47008 585 ft 5 kts 335°
2026-04-28 18:12 50.46825 4.46996 585 ft 1 kts 335°
2026-04-28 18:12 50.46828 4.46994 585 ft 0 kts 335°
2026-04-28 18:12 50.46835 4.46989 585 ft 1 kts 335°
2026-04-28 18:12 50.46840 4.46985 585 ft 0 kts 335°